Location: Newark
(39.0622°N, 106.5590°E)
Time: 01:30:57
(UTC+00:00)

S-56A Canister/Altair - Visible Passes

Search period start: 20 January 2020 00:00
Search period end: 30 January 2020 00:00
Orbit: 634 x 2498 km, 38.9° (Epoch: 19 January)

Date Brightness Start Highest point End Pass type
(mag) Time Alt. Az. Time Alt. Az. Time Alt. Az.
20 Jan 10.3 21:50:06 10° SSW 21:50:06 10° SSW 21:50:09 10° SSW visible
21 Jan 9.9 12:57:03 10° SSW 12:58:55 16° SSW 12:58:55 16° SSW visible
22 Jan 9.4 12:24:16 10° SSW 12:28:16 22° SSE 12:28:16 22° SSE visible
23 Jan 9.3 11:51:28 10° SSW 11:56:46 21° SSE 11:57:36 21° SE visible
23 Jan 10.5 13:54:35 10° WSW 13:55:03 12° WSW 13:55:03 12° WSW visible
24 Jan 9.5 11:18:39 10° SSW 11:24:03 20° SSE 11:26:55 15° ESE visible
24 Jan 9.7 13:21:34 10° WSW 13:24:22 24° SW 13:24:22 24° SW visible
25 Jan 9.8 10:45:51 10° S 10:51:18 19° SSE 10:55:39 10° ESE visible
25 Jan 8.8 12:48:28 10° SW 12:53:39 40° SSW 12:53:39 40° SSW visible
26 Jan 8.3 12:15:19 10° SW 12:22:36 47° SSE 12:22:56 46° SSE visible
27 Jan 8.6 11:42:06 10° SW 11:49:54 44° SSE 11:52:10 32° ESE visible
27 Jan 10.0 13:47:18 10° W 13:49:37 21° WSW 13:49:37 21° WSW visible
28 Jan 9.0 11:08:51 10° SW 11:17:09 41° SSE 11:21:25 18° E visible
28 Jan 9.0 13:14:05 10° WSW 13:18:51 41° WSW 13:18:51 41° WSW visible
29 Jan 9.3 10:35:35 10° SW 10:44:20 39° SSE 10:50:23 10° E visible
29 Jan 8.0 12:40:46 10° WSW 12:48:03 73° SSW 12:48:03 73° SSW visible
